South Lake Tahoe, CA

6:45 AM PST on December 08, 2016 (GMT -0800)
Lake Tahoe

Weather History for KTVL - September, 2013

Change the Weather History Date:

Tuesday, September 10, 2013

  Actual Average Record
Temperature  
Mean Temperature 60 °F 56 °F  
Max Temperature 81 °F 75 °F 87 °F (2015)
Min Temperature 39 °F 36 °F 28 °F (1986)
Degree Days  
Heating Degree Days 5 9  
Month to date heating degree days 25 85  
Since 1 July heating degree days 201 381  
Cooling Degree Days 0 0  
Month to date cooling degree days 4 0  
Year to date cooling degree days 102 30  
Growing Degree Days 10 (Base 50)    
Moisture  
Dew Point 31 °F    
Average Humidity 38    
Maximum Humidity 64    
Minimum Humidity 11    
Precipitation  
Precipitation 0.00 in - 0.39 in (1975)
Month to date precipitation T  
Year to date precipitation 6.44  
Sea Level Pressure  
Sea Level Pressure 29.95 in    
Wind  
Wind Speed 2 mph (South)    
Max Wind Speed 12 mph    
Max Gust Speed 22 mph    
Visibility 10 miles    
Events      
T = Trace of Precipitation, MM = Missing Value Source: NWS Daily Summary

Daily Weather History Graph

Daily Weather History Graph

Search for Another Location

Airport or City:

Trip Planner

Search our weather history database for the weather conditions in past years. The results will help you decide how hot, cold, wet, or windy it might be!

Date:

Astronomy

Sep. 10, 2013 Rise Set
Actual Time 6:37 AM PDT 7:15 PM PDT
Civil Twilight 6:10 AM PDT 7:42 PM PDT
Nautical Twilight 5:38 AM PDT 8:14 PM PDT
Astronomical Twilight 5:05 AM PDT 8:46 PM PDT
Moon 12:04 PM PDT (9/10) 10:26 PM PDT (9/10)
Length of Visible Light 13h 32m
Length of Day
12h 38m
Waxing Crescent, 29% of the Moon is Illuminated
Sep 10
Waxing Crescent
Sep 12
First Quarter
Sep 19
Full
Sep 26
Last Quarter
Oct 4
New

Hourly Weather History & Observations

Time (PDT) Temp. Windchill Dew Point Humidity Pressure Visibility Wind Dir Wind Speed Gust Speed Precip Events Conditions
12:53 AM 51.1 °F - 33.1 °F 50% 29.93 in 10.0 mi South 3.5 mph - N/A   Clear
1:53 AM 50.0 °F - 32.0 °F 50% 29.94 in 10.0 mi Calm Calm - N/A   Clear
2:53 AM 46.0 °F 43.9 °F 32.0 °F 58% 29.95 in 10.0 mi South 4.6 mph - N/A   Clear
3:53 AM 46.0 °F 44.8 °F 30.0 °F 54% 29.94 in 10.0 mi SSW 3.5 mph - N/A   Clear
4:53 AM 43.0 °F 41.3 °F 30.0 °F 60% 29.94 in 10.0 mi Variable 3.5 mph - N/A   Clear
5:53 AM 41.0 °F - 28.9 °F 62% 29.96 in 10.0 mi Calm Calm - N/A   Clear
6:53 AM 39.9 °F 37.8 °F 28.9 °F 65% 30.00 in 10.0 mi South 3.5 mph - N/A   Clear
7:53 AM 46.9 °F - 30.9 °F 54% 29.99 in 10.0 mi Calm Calm - N/A   Clear
8:53 AM 59.0 °F - 34.0 °F 39% 29.98 in 10.0 mi Calm Calm - N/A   Clear
9:53 AM 69.1 °F - 32.0 °F 25% 29.96 in 10.0 mi Calm Calm - N/A   Clear
10:53 AM 73.9 °F - 32.0 °F 21% 29.94 in 10.0 mi Calm Calm - N/A   Clear
11:53 AM 75.9 °F - 33.1 °F 21% 29.94 in 10.0 mi Variable 4.6 mph - N/A   Clear
12:53 PM 78.1 °F - 34.0 °F 20% 29.92 in 10.0 mi Variable 4.6 mph 18.4 mph N/A   Clear
1:53 PM 79.0 °F - 35.1 °F 20% 29.91 in 10.0 mi Variable 3.5 mph - N/A   Clear
2:53 PM 80.1 °F - 28.0 °F 15% 29.91 in 10.0 mi Variable 5.8 mph - N/A   Clear
3:53 PM 81.0 °F - 24.1 °F 12% 29.89 in 10.0 mi NNE 5.8 mph - N/A   Clear
4:53 PM 80.1 °F - 23.0 °F 12% 29.90 in 10.0 mi Variable 3.5 mph - N/A   Clear
5:53 PM 77.0 °F - 19.0 °F 11% 29.93 in 10.0 mi Calm Calm - N/A   Clear
6:53 PM 71.1 °F - 28.0 °F 20% 29.96 in 10.0 mi Calm Calm - N/A   Clear
7:53 PM 64.9 °F - 30.9 °F 28% 29.99 in 10.0 mi Calm Calm - N/A   Clear
8:53 PM 62.1 °F - 37.0 °F 39% 29.98 in 10.0 mi Calm Calm - N/A   Clear
9:53 PM 57.9 °F - 37.0 °F 46% 29.97 in 10.0 mi Calm Calm - N/A   Clear
10:53 PM 55.0 °F - 37.0 °F 51% 29.97 in 10.0 mi Calm Calm - N/A   Clear
11:53 PM 53.1 °F - 36.0 °F 52% 29.98 in 10.0 mi Calm Calm - N/A   Clear